Temp
88 89 90 90 90 90 90 90 90 90 91 90 91 92 92 93 91 91 91 89 87 87 87 87 87 88 88 89 89 89 90 90 90 90 90 91 91 90 90 92 92 90 93 93 92 92 92 92 92 92 92 91 91 90 89 90 89 93 91 89 90 90 90
86 88 89 90 90 89 90 90 90 91 91 91 91 91 92 92 91 90 90 89 88 88 88 88 87 88 88 88 90 89 88 89 90 89 91 90 90 90 91 91 91 90 90 92 92 92 92 93 92 92 91 92 92 90 91 91 90 90 91 90 90 90 90
85 86 88 89 88 89 89 90 91 91 91 92 93 92 91 90 90 89 89 89 88 88 89 89 88 89 89 89 89 89 89 90 90 91 91 93 92 94 93 92 92 93 94 93 92 94 94 93 91 91 92 92 94 91 90 91 90 91 90 89 90 91 88
82 84 87 88 88 89 89 90 90 91 92 92 93 93 91 90 91 90 90 90 89 89 88 91 90 91 90 89 89 89 89 89 90 93 94 94 94 95 93 92 91 93 93 93 95 94 97 94 93 91 90 91 90 92 92 91 93 92 91 89 90 91 89
82 85 87 87 86 86 87 89 89 89 90 92 92 92 93 91 91 91 91 93 92 91 92 93 94 93 92 92 92 93 91 92 91 92 94 94 93 93 93 94 94 94 93 95 93 92 91 91 93 92 91 90 91 91 91 91 92 90 90 90 90 91 92
82 84 85 84 84 85 86 89 90 90 90 90 90 91 93 91 94 94 93 93 92 92 92 93 94 93 92 93 93 94 93 92 91 91 92 93 92 94 94 93 95 94 95 94 95 94 93 93 93 93 94 95 94 94 94 93 94 94 91 90 90 92 94
83 84 83 81 81 82 83 86 91 91 90 91 92 92 93 92 92 93 94 93 91 91 94 94 94 93 92 93 92 92 92 94 92 93 93 94 94 93 93 94 94 96 96 95 94 95 94 93 92 92 93 94 93 94 92 90 91 92 91 89 89 89 89
80 80 81 82 82 83 85 86 89 91 91 92 93 91 90 92 91 92 93 94 93 96 93 93 92 91 90 91 92 92 92 93 94 94 94 94 95 93 94 95 94 94 94 95 94 94 95 93 95 94 93 94 93 92 93 91 89 92 93 91 89 90 94
77 79 81 82 82 84 87 88 89 90 89 90 90 90 91 91 91 90 90 91 91 91 91 92 92 91 90 90 90 90 92 93 93 94 94 94 95 96 97 96 95 95 94 95 97 95 95 95 95 93 92 92 91 90 91 90 91 92 92 91 90 89 91
77 78 80 81 81 85 87 88 88 88 88 87 87 88 89 89 89 89 89 89 89 89 90 90 91 90 89 89 90 91 91 91 92 94 95 95 96 96 97 98 97 96 95 96 97 97 95 95 95 93 90 91 90 90 90 90 92 92 93 91 91 90 89
77 78 80 80 82 85 86 86 86 85 86 86 86 88 89 89 88 88 88 89 89 88 89 90 90 89 88 89 89 90 91 91 92 93 92 92 94 96 97 98 99 97 96 97 97 97 97 94 94 92 90 93 91 91 90 91 92 91 93 93 93 92 92
75 78 79 81 83 84 84 84 85 85 85 85 86 87 87 87 88 87 87 88 89 89 88 89 90 89 88 89 89 89 90 92 93 92 93 92 92 93 96 98 98 98 97 97 95 95 97 95 95 94 91 91 92 93 91 91 91 91 91 94 95 94 93
75 72 74 81 81 82 83 83 84 84 85 86 86 86 86 87 87 87 86 87 89 89 89 88 89 88 87 88 89 89 90 92 92 93 93 91 90 91 93 96 98 97 97 96 95 95 96 97 94 94 94 92 93 94 92 91 93 90 91 92 93 92 92
71 75 78 80 80 80 79 81 83 83 84 85 85 86 87 87 87 87 86 87 88 88 89 90 89 88 87 88 88 88 89 90 91 91 91 91 90 90 91 94 96 96 96 96 95 96 96 97 96 95 95 94 94 94 93 92 92 91 90 92 90 94 93
70 73 76 78 79 79 80 81 81 82 83 83 84 84 85 86 86 86 86 87 87 88 88 89 88 88 88 87 87 87 88 88 89 90 89 89 89 89 89 90 93 94 94 94 95 98 97 97 97 96 95 96 95 94 95 96 95 94 94 92 90 87 89
68 70 74 77 79 80 81 82 82 82 83 83 83 84 84 85 85 85 85 85 86 86 87 88 87 87 87 86 86 87 87 87 87 87 87 87 87 87 88 90 91 93 92 93 93 93 93 93 94 95 95 95 94 95 96 97 91 78 74 78 89 91 92
67 69 71 73 75 78 80 81 81 82 82 83 83 84 84 84 84 85 85 85 86 86 87 87 86 86 86 86 87 86 86 85 85 85 84 83 84 87 87 87 89 89 89 90 91 91 90 91 92 94 95 95 95 95 97 94 81 68 68 70 72 85 90
67 68 70 72 74 76 77 79 80 81 81 81 82 83 83 83 84 84 84 85 85 86 87 86 85 85 85 86 86 86 85 85 84 82 78 74 76 80 84 87 87 86 87 89 90 88 91 91 91 91 93 95 96 95 95 84 67 65 66 68 68 73 84
69 69 68 70 72 73 75 76 78 79 81 82 83 83 83 84 83 83 84 84 85 86 85 84 85 84 85 85 85 85 85 84 82 80 79 79 77 75 75 82 85 85 86 87 89 89 87 87 87 87 91 93 91 93 91 84 64 65 65 66 66 68 77
66 66 67 69 70 71 73 74 75 77 78 78 80 82 83 84 83 84 85 85 85 84 84 83 84 84 84 84 84 84 83 82 82 79 78 79 78 78 81 82 83 85 87 87 86 85 86 87 87 88 87 88 88 87 86 80 65 62 63 64 64 67 72
64 65 65 65 67 67 68 69 71 72 74 76 77 78 79 80 82 82 82 82 82 82 82 82 82 82 82 82 82 82 81 81 81 80 79 78 78 80 78 77 79 81 82 83 83 81 80 81 86 86 86 86 88 88 85 76 58 61 60 62 62 64 72
64 64 63 64 64 64 66 67 68 69 69 71 74 75 77 77 79 80 80 81 81 81 81 80 80 80 80 79 79 78 79 79 79 78 78 77 75 75 74 76 78 79 81 80 81 80 81 80 84 84 85 86 86 84 81 73 57 59 59 59 61 62 82
65 64 64 64 65 65 67 68 68 68 69 69 69 70 72 74 75 76 77 77 78 78 79 79 79 80 78 76 74 74 74 74 74 74 76 76 73 72 73 73 74 77 80 80 80 79 78 80 83 84 83 82 83 81 76 72 60 57 57 59 57 70 84
68 67 66 65 65 66 67 68 69 69 69 69 69 70 71 72 72 71 70 70 71 72 71 71 71 74 77 77 77 76 75 73 72 72 72 72 72 71 71 72 73 75 77 78 79 78 80 81 79 79 78 78 77 77 75 71 62 56 57 58 58 67 80
66 66 66 65 65 65 66 67 68 68 69 69 68 69 69 69 69 69 67 67 68 68 67 67 68 68 69 73 75 74 73 73 73 72 71 71 72 71 71 72 72 73 74 74 75 75 76 76 75 75 75 75 75 74 75 71 66 56 56 56 57 67 78
64 65 66 66 66 66 66 67 67 68 68 69 69 70 69 69 68 66 65 65 66 65 65 65 65 67 67 68 70 70 71 71 71 71 71 71 70 71 71 71 70 71 71 72 72 71 72 73 74 72 72 73 74 73 73 72 70 63 54 55 57 58 72
68 67 66 66 67 68 68 67 66 66 67 69 70 70 70 71 68 66 66 66 65 64 64 65 67 67 66 66 67 68 68 68 68 68 68 69 69 69 69 69 69 70 70 70 70 70 70 71 71 71 71 72 72 72 72 72 71 64 54 54 54 55 63
70 70 70 68 68 68 68 68 67 66 67 70 72 72 73 72 68 66 67 66 64 65 67 68 67 67 66 66 66 67 67 68 68 68 69 69 69 67 67 68 69 69 68 68 67 67 68 69 69 69 69 71 72 72 71 71 70 71 59 54 54 53 56
70 71 71 71 70 71 71 68 68 66 66 67 68 70 72 72 68 67 67 66 65 67 69 69 69 67 66 65 65 66 67 68 69 69 69 69 70 69 68 68 68 68 67 67 67 67 67 67 67 67 67 68 70 72 73 73 71 67 69 59 55 54 56
74 75 75 75 75 73 72 70 69 68 68 68 68 68 71 71 68 68 68 67 70 70 69 69 69 69 69 68 67 65 67 69 69 69 69 69 69 69 69 68 68 67 67 68 67 66 66 66 68 69 70 72 73 75 74 73 74 69 66 67 58 56 54
74 74 74 73 74 73 73 72 70 71 71 71 71 72 71 72 70 70 69 71 73 73 72 71 71 72 72 72 72 71 71 70 70 69 68 69 71 69 69 69 70 68 70 71 70 68 67 67 69 70 71 73 76 78 77 77 77 78 70 65 66 59 56
73 74 75 74 73 73 73 73 72 71 70 71 72 72 72 73 74 70 71 74 75 75 74 73 71 70 70 71 72 73 74 73 74 74 73 73 73 72 71 70 69 68 68 69 69 69 70 72 73 74 73 71 73 74 76 76 77 77 79 76 76 70 61
72 73 73 72 73 73 74 74 73 72 72 71 73 74 74 74 75 74 74 74 76 76 75 73 72 71 71 70 70 71 72 73 76 76 76 75 75 75 74 73 73 73 73 74 75 75 75 75 74 75 74 74 75 75 75 76 77 78 77 77 76 77 75
70 71 72 73 73 73 73 72 71 71 71 70 72 74 75 75 76 77 78 78 78 78 76 75 76 75 74 74 73 73 74 74 73 74 76 75 76 77 77 76 77 75 72 72 74 74 74 74 72 71 72 73 74 74 75 76 77 75 71 71 71 71 72
70 70 72 72 72 72 72 72 72 72 72 72 73 73 74 74 75 76 77 77 78 77 76 75 76 76 77 77 76 75 74 76 75 75 75 74 73 71 69 70 75 74 72 70 68 67 71 74 73 73 75 76 73 72 72 73 73 68 54 56 50 54 62
71 71 71 73 73 73 72 72 72 71 71 71 73 73 73 74 76 78 80 80 79 78 76 75 76 76 77 77 77 77 75 75 75 74 75 75 73 71 68 56 47 55 70 72 58 49 43 51 67 67 72 75 74 72 71 71 68 48 41 41 40 41 41
70 71 71 72 72 71 71 71 72 72 72 72 73 74 74 74 75 76 78 78 78 78 76 76 76 76 76 75 75 74 74 74 73 72 71 72 73 73 70 70 64 45 42 53 54 47 41 40 41 44 47 61 73 68 54 54 45 40 40 39 41 40 40
71 70 71 73 71 70 70 70 71 72 72 73 74 74 74 76 76 75 77 76 77 77 76 76 76 76 77 77 76 74 75 75 73 73 72 71 72 72 72 72 68 64 47 41 46 45 41 40 40 40 43 43 49 63 70 52 44 39 40 40 40 41 40
MSLP
1012.52 1012.60 1012.64 1012.76 1013.12 1013.44 1013.76 1013.88 1014.04 1014.28 1014.48 1014.76 1014.88 1015.00 1015.16 1015.16 1015.40 1015.68 1016.04 1016.40 1016.88 1017.20 1017.24 1017.40 1017.56 1017.64 1017.92 1018.04 1018.08 1018.12 1018.20 1018.36 1018.48 1018.68 1018.84 1018.84 1018.84 1018.96 1019.08 1018.96 1019.04 1019.24 1019.04 1019.08 1019.12 1019.32 1019.16 1019.04 1019.20 1019.24 1019.28 1019.44 1019.52 1019.60 1019.72 1019.72 1019.80 1019.68 1019.72 1019.80 1019.88 1019.96 1020.00
1012.52 1012.44 1012.40 1012.52 1012.92 1013.20 1013.36 1013.56 1013.80 1014.00 1014.24 1014.40 1014.60 1014.80 1014.92 1015.12 1015.32 1015.68 1015.92 1016.16 1016.52 1016.84 1017.04 1017.20 1017.48 1017.60 1017.72 1017.84 1017.80 1018.00 1018.20 1018.24 1018.28 1018.40 1018.40 1018.60 1018.68 1018.72 1018.68 1018.80 1018.92 1019.08 1019.08 1018.96 1018.92 1018.88 1019.00 1019.04 1019.12 1019.28 1019.40 1019.36 1019.44 1019.48 1019.52 1019.56 1019.68 1019.76 1019.68 1019.76 1019.92 1020.00 1019.92
1012.40 1012.32 1012.36 1012.44 1012.76 1013.04 1013.24 1013.36 1013.52 1013.68 1013.92 1014.08 1014.32 1014.56 1014.80 1014.96 1015.12 1015.52 1015.80 1016.04 1016.44 1016.60 1016.68 1016.92 1017.20 1017.40 1017.48 1017.60 1017.80 1017.92 1018.00 1018.04 1018.16 1018.32 1018.48 1018.36 1018.44 1018.36 1018.28 1018.44 1018.60 1018.64 1018.56 1018.56 1018.76 1018.76 1018.68 1018.88 1019.00 1019.12 1019.24 1019.28 1019.16 1019.32 1019.48 1019.52 1019.56 1019.64 1019.64 1019.80 1019.88 1019.84 1020.00
1012.28 1012.36 1012.28 1012.24 1012.36 1012.60 1012.84 1013.08 1013.36 1013.44 1013.52 1013.68 1013.88 1014.12 1014.48 1014.80 1014.84 1015.16 1015.44 1015.72 1016.12 1016.40 1016.72 1016.60 1016.80 1017.00 1017.16 1017.44 1017.64 1017.72 1017.84 1017.84 1017.84 1017.84 1017.88 1017.80 1017.92 1017.92 1018.12 1018.32 1018.48 1018.36 1018.52 1018.64 1018.40 1018.48 1018.32 1018.56 1018.84 1019.08 1019.32 1019.40 1019.40 1019.28 1019.24 1019.36 1019.28 1019.36 1019.48 1019.68 1019.80 1019.72 1019.88
1012.28 1012.00 1012.04 1012.36 1012.84 1013.08 1013.08 1013.12 1013.28 1013.44 1013.52 1013.44 1013.56 1013.68 1013.96 1014.32 1014.60 1014.88 1015.16 1015.20 1015.52 1015.96 1016.00 1016.16 1016.16 1016.36 1016.60 1016.84 1017.04 1017.12 1017.32 1017.44 1017.56 1017.56 1017.48 1017.44 1017.56 1017.72 1017.96 1018.08 1018.12 1018.28 1018.20 1018.20 1018.24 1018.52 1018.76 1018.84 1018.76 1018.88 1019.12 1019.32 1019.32 1019.28 1019.40 1019.32 1019.32 1019.40 1019.48 1019.56 1019.76 1019.64 1019.64
1012.56 1012.20 1012.24 1012.60 1012.88 1013.00 1013.04 1012.92 1012.96 1013.16 1013.36 1013.60 1013.68 1013.76 1013.80 1014.12 1014.24 1014.64 1014.80 1015.04 1015.28 1015.36 1015.52 1015.76 1015.88 1016.04 1016.48 1016.44 1016.56 1016.68 1016.76 1017.04 1017.16 1017.28 1017.44 1017.44 1017.60 1017.76 1017.80 1017.88 1017.84 1017.92 1018.04 1018.16 1017.96 1018.16 1018.40 1018.56 1018.56 1018.56 1018.72 1018.72 1018.88 1018.96 1018.92 1019.08 1019.04 1019.08 1019.24 1019.48 1019.52 1019.44 1019.36
1012.04 1011.88 1012.40 1012.76 1012.84 1013.00 1013.08 1013.00 1012.72 1012.80 1012.96 1013.12 1013.24 1013.36 1013.56 1013.92 1014.16 1014.24 1014.36 1014.72 1015.04 1015.36 1015.40 1015.56 1015.60 1015.72 1016.08 1016.08 1016.36 1016.48 1016.76 1016.80 1016.96 1017.12 1017.12 1017.28 1017.32 1017.60 1017.52 1017.52 1017.56 1017.56 1017.52 1017.60 1017.96 1017.88 1018.12 1018.36 1018.44 1018.52 1018.56 1018.60 1018.64 1018.68 1018.84 1019.12 1019.16 1019.00 1019.12 1019.40 1019.60 1019.52 1019.56
1012.08 1012.32 1012.32 1012.40 1012.64 1012.68 1012.84 1012.76 1012.56 1012.48 1012.72 1012.76 1013.16 1013.48 1013.72 1013.72 1013.92 1014.12 1014.28 1014.28 1014.64 1014.72 1015.08 1015.20 1015.40 1015.64 1015.84 1015.92 1016.04 1016.28 1016.44 1016.48 1016.48 1016.68 1016.80 1017.00 1017.04 1017.32 1017.28 1017.36 1017.44 1017.44 1017.48 1017.68 1017.72 1017.76 1017.96 1018.12 1018.04 1018.20 1018.40 1018.48 1018.60 1018.80 1018.76 1018.96 1019.20 1019.04 1018.92 1019.20 1019.44 1019.48 1019.12
1012.20 1012.12 1012.08 1012.04 1012.32 1012.36 1012.20 1012.28 1012.32 1012.40 1012.72 1012.92 1013.08 1013.32 1013.52 1013.68 1013.88 1014.04 1014.20 1014.28 1014.44 1014.68 1014.84 1014.80 1015.00 1015.24 1015.60 1015.92 1016.08 1016.24 1016.16 1016.24 1016.32 1016.44 1016.64 1016.80 1016.80 1016.92 1016.88 1016.96 1017.12 1017.08 1017.44 1017.52 1017.36 1017.40 1017.64 1017.76 1017.84 1018.04 1018.24 1018.44 1018.56 1018.80 1018.84 1018.92 1018.92 1018.80 1018.88 1019.04 1019.24 1019.40 1019.24
1012.28 1012.28 1011.96 1011.92 1012.04 1011.92 1011.88 1011.96 1012.12 1012.40 1012.76 1013.04 1013.16 1013.32 1013.48 1013.52 1013.72 1013.88 1014.04 1014.24 1014.40 1014.68 1014.68 1014.80 1014.92 1015.16 1015.56 1015.84 1015.96 1016.00 1016.12 1016.32 1016.24 1016.28 1016.40 1016.64 1016.60 1016.68 1016.60 1016.48 1016.68 1016.84 1017.16 1017.20 1017.04 1017.20 1017.40 1017.48 1017.64 1017.92 1018.36 1018.56 1018.68 1018.80 1018.80 1018.76 1018.72 1018.64 1018.60 1018.88 1019.00 1019.12 1019.24
1012.44 1012.24 1012.04 1012.12 1012.16 1011.92 1011.92 1012.16 1012.44 1012.64 1012.68 1012.92 1013.04 1013.08 1013.20 1013.40 1013.68 1013.88 1014.00 1014.12 1014.32 1014.48 1014.48 1014.64 1014.72 1015.08 1015.40 1015.64 1015.88 1015.92 1016.08 1016.20 1016.20 1016.28 1016.44 1016.52 1016.44 1016.48 1016.44 1016.36 1016.36 1016.56 1016.96 1017.00 1017.08 1017.04 1017.08 1017.48 1017.56 1017.88 1018.28 1018.44 1018.48 1018.60 1018.64 1018.60 1018.52 1018.60 1018.52 1018.40 1018.36 1018.64 1018.76
1012.64 1012.16 1012.04 1011.92 1011.96 1012.00 1012.24 1012.28 1012.32 1012.48 1012.64 1012.72 1012.80 1012.92 1013.08 1013.20 1013.40 1013.60 1013.76 1013.88 1013.84 1014.20 1014.40 1014.52 1014.56 1014.84 1015.20 1015.36 1015.64 1015.84 1015.96 1015.96 1016.04 1016.20 1016.28 1016.48 1016.56 1016.52 1016.36 1016.24 1016.32 1016.44 1016.68 1016.84 1017.08 1017.16 1017.08 1017.28 1017.44 1017.68 1018.08 1018.16 1018.12 1018.16 1018.32 1018.36 1018.40 1018.44 1018.44 1018.24 1018.08 1018.20 1018.36
1012.56 1013.24 1012.88 1011.88 1012.00 1012.16 1012.20 1012.48 1012.52 1012.48 1012.52 1012.60 1012.68 1012.76 1012.88 1013.04 1013.24 1013.40 1013.60 1013.72 1013.68 1013.76 1014.08 1014.24 1014.44 1014.72 1015.00 1015.16 1015.36 1015.56 1015.72 1015.72 1015.76 1015.80 1015.92 1016.20 1016.40 1016.44 1016.40 1016.28 1016.16 1016.32 1016.52 1016.56 1016.88 1017.08 1017.20 1017.08 1017.40 1017.44 1017.64 1017.88 1017.92 1017.92 1017.92 1018.12 1018.08 1018.28 1018.28 1018.28 1018.08 1018.12 1018.20
1013.28 1012.76 1012.24 1012.04 1012.12 1012.40 1012.76 1012.68 1012.52 1012.56 1012.56 1012.56 1012.64 1012.68 1012.80 1012.84 1012.92 1013.20 1013.40 1013.60 1013.56 1013.64 1013.80 1013.88 1014.20 1014.56 1014.80 1014.96 1015.20 1015.32 1015.44 1015.44 1015.36 1015.56 1015.68 1015.80 1016.12 1016.32 1016.44 1016.36 1016.24 1016.24 1016.28 1016.36 1016.72 1016.88 1016.92 1016.96 1017.00 1017.28 1017.36 1017.48 1017.60 1017.60 1017.64 1017.84 1018.00 1018.00 1018.08 1017.92 1018.16 1017.84 1017.88
1013.76 1013.20 1012.72 1012.52 1012.40 1012.52 1012.52 1012.56 1012.52 1012.52 1012.56 1012.60 1012.60 1012.84 1012.88 1012.96 1013.00 1013.04 1013.20 1013.28 1013.40 1013.52 1013.68 1013.68 1014.04 1014.40 1014.64 1014.88 1015.12 1015.16 1015.20 1015.32 1015.40 1015.44 1015.72 1015.92 1016.12 1016.32 1016.48 1016.52 1016.40 1016.32 1016.36 1016.52 1016.60 1016.48 1016.52 1016.60 1016.68 1016.84 1017.04 1016.96 1017.16 1017.32 1017.24 1017.32 1017.36 1017.56 1017.60 1017.80 1018.16 1018.48 1018.48
1013.92 1013.64 1013.16 1012.72 1012.48 1012.36 1012.24 1012.16 1012.20 1012.32 1012.40 1012.56 1012.72 1012.84 1012.96 1013.04 1013.08 1013.16 1013.32 1013.44 1013.40 1013.52 1013.52 1013.64 1014.00 1014.32 1014.56 1014.84 1014.96 1015.04 1015.16 1015.40 1015.56 1015.68 1015.80 1016.12 1016.32 1016.40 1016.40 1016.48 1016.44 1016.44 1016.60 1016.64 1016.68 1016.64 1016.60 1016.64 1016.64 1016.72 1016.92 1017.12 1017.12 1017.12 1017.16 1017.04 1017.60 1018.48 1018.24 1018.08 1018.04 1017.96 1017.92
1013.92 1013.64 1013.40 1013.24 1013.04 1012.76 1012.48 1012.32 1012.28 1012.36 1012.48 1012.56 1012.64 1012.72 1012.84 1012.96 1013.00 1013.08 1013.20 1013.28 1013.36 1013.52 1013.44 1013.60 1014.04 1014.24 1014.44 1014.72 1014.68 1014.92 1015.20 1015.56 1015.76 1015.96 1016.28 1016.48 1016.64 1016.36 1016.56 1016.56 1016.48 1016.64 1016.76 1016.80 1016.76 1016.80 1016.80 1016.88 1016.96 1016.88 1016.76 1016.84 1016.92 1017.04 1016.88 1017.20 1018.40 1018.56 1018.56 1018.68 1018.68 1018.32 1017.96
1013.80 1013.72 1013.60 1013.48 1013.36 1013.12 1012.96 1012.72 1012.64 1012.64 1012.76 1012.76 1012.76 1012.72 1012.84 1013.00 1013.00 1013.08 1013.28 1013.20 1013.28 1013.32 1013.36 1013.76 1014.00 1014.28 1014.40 1014.44 1014.52 1014.80 1015.12 1015.48 1015.80 1016.20 1016.76 1017.36 1017.52 1017.20 1016.76 1016.60 1016.76 1016.84 1016.96 1016.92 1016.88 1017.00 1016.84 1016.92 1017.00 1017.00 1016.92 1016.76 1016.72 1016.88 1016.88 1018.16 1018.88 1018.72 1018.88 1018.92 1018.88 1018.76 1018.36
1013.56 1013.60 1013.88 1013.84 1013.72 1013.60 1013.36 1013.20 1013.00 1012.84 1012.68 1012.60 1012.52 1012.60 1012.64 1012.68 1012.96 1013.16 1013.08 1013.16 1013.08 1013.08 1013.48 1013.80 1013.92 1014.08 1014.24 1014.32 1014.52 1014.76 1014.96 1015.32 1015.92 1016.24 1016.60 1017.08 1017.08 1017.12 1017.40 1017.16 1017.00 1017.00 1017.04 1017.12 1016.84 1016.92 1017.20 1017.32 1017.44 1017.56 1017.04 1016.92 1017.16 1017.04 1017.28 1018.32 1019.12 1019.08 1019.16 1019.08 1018.92 1018.88 1018.52
1014.32 1014.32 1014.36 1014.20 1014.04 1013.88 1013.72 1013.52 1013.36 1013.20 1013.08 1012.96 1012.80 1012.64 1012.48 1012.48 1012.72 1012.76 1012.76 1012.88 1012.96 1013.32 1013.52 1013.76 1013.88 1013.96 1014.16 1014.28 1014.56 1014.84 1015.16 1015.36 1015.76 1016.24 1016.40 1016.48 1016.84 1017.04 1016.84 1016.84 1016.92 1016.80 1016.64 1016.80 1017.04 1017.36 1017.48 1017.40 1017.44 1017.32 1017.36 1017.36 1017.44 1017.60 1017.92 1018.72 1019.44 1019.48 1019.40 1019.28 1019.12 1018.88 1018.72
1015.04 1014.20 1014.72 1014.96 1014.88 1014.68 1014.60 1014.36 1013.96 1013.84 1013.56 1013.32 1013.20 1013.16 1013.08 1013.04 1012.88 1012.92 1013.12 1013.16 1013.44 1013.48 1013.72 1013.84 1013.92 1014.08 1014.24 1014.52 1014.72 1014.96 1015.36 1015.72 1015.92 1016.20 1016.40 1016.44 1016.68 1016.80 1017.12 1017.24 1017.08 1017.08 1017.08 1017.08 1017.16 1017.48 1017.88 1018.08 1017.68 1017.56 1017.48 1017.52 1017.52 1017.64 1018.36 1019.40 1019.84 1019.68 1019.60 1019.48 1019.28 1018.96 1018.68
1015.20 1014.28 1014.56 1015.00 1015.32 1015.36 1015.08 1014.72 1014.40 1014.24 1014.20 1013.92 1013.68 1013.60 1013.52 1013.56 1013.32 1013.36 1013.48 1013.36 1013.56 1013.64 1013.80 1013.96 1014.16 1014.32 1014.44 1014.76 1014.96 1015.24 1015.44 1015.84 1016.28 1016.64 1016.60 1016.64 1016.84 1016.92 1017.20 1017.32 1017.28 1017.24 1017.20 1017.36 1017.44 1017.40 1017.32 1017.72 1017.52 1017.72 1017.68 1017.52 1017.60 1017.92 1018.60 1019.52 1019.88 1019.84 1019.76 1019.64 1019.36 1019.08 1018.36
1014.76 1014.20 1014.24 1014.64 1014.88 1015.04 1014.68 1014.40 1014.36 1014.36 1014.32 1014.40 1014.40 1014.36 1014.32 1014.00 1013.88 1013.88 1013.96 1014.04 1014.04 1014.04 1014.16 1014.16 1014.32 1014.32 1014.48 1014.88 1015.24 1015.44 1015.56 1015.88 1016.40 1016.92 1016.96 1016.92 1017.28 1017.12 1017.28 1017.92 1017.64 1017.20 1016.96 1017.20 1017.32 1017.48 1017.72 1017.92 1017.72 1017.68 1017.76 1017.84 1017.92 1018.20 1018.92 1019.48 1019.96 1019.96 1019.88 1019.64 1019.44 1018.84 1018.20
1014.44 1013.76 1013.84 1014.28 1014.52 1014.68 1014.76 1014.68 1014.52 1014.44 1014.56 1014.68 1014.72 1014.68 1014.52 1014.36 1014.48 1014.72 1015.04 1015.20 1015.12 1015.12 1015.32 1015.32 1015.36 1014.96 1014.72 1014.88 1015.04 1015.28 1015.56 1016.00 1016.36 1016.92 1017.12 1017.04 1017.24 1017.52 1017.44 1017.60 1017.80 1017.36 1017.08 1017.32 1017.44 1017.64 1017.76 1017.72 1018.04 1018.16 1018.24 1018.36 1018.60 1018.68 1019.16 1019.72 1020.28 1020.28 1020.08 1019.80 1019.56 1019.16 1018.52
1014.80 1013.96 1014.04 1014.40 1014.68 1015.00 1015.16 1015.08 1014.88 1014.76 1014.64 1014.64 1014.96 1015.00 1014.88 1014.88 1015.04 1015.36 1015.76 1015.88 1015.88 1015.92 1016.08 1016.16 1016.04 1015.92 1015.72 1015.20 1015.04 1015.32 1015.68 1016.00 1016.32 1016.76 1017.04 1017.20 1017.36 1017.60 1017.72 1017.56 1017.72 1017.48 1017.36 1017.48 1017.56 1017.88 1018.08 1018.32 1018.52 1018.68 1018.72 1018.80 1019.00 1019.16 1019.28 1019.84 1020.28 1020.40 1020.20 1019.96 1019.68 1019.24 1018.68
1015.04 1013.92 1014.12 1014.48 1014.76 1015.04 1015.24 1015.20 1015.20 1015.12 1015.08 1015.04 1015.24 1015.12 1015.12 1015.20 1015.48 1015.92 1016.24 1016.44 1016.32 1016.56 1016.76 1016.68 1016.52 1016.20 1015.92 1015.64 1015.48 1015.68 1015.84 1016.08 1016.36 1016.72 1016.96 1017.20 1017.40 1017.56 1017.60 1017.64 1017.88 1017.88 1017.84 1017.92 1017.96 1018.04 1018.32 1018.64 1018.76 1019.08 1019.32 1019.28 1019.36 1019.52 1019.64 1019.92 1020.08 1020.28 1020.16 1020.00 1019.76 1019.64 1019.28
1015.00 1014.12 1014.12 1014.48 1015.00 1015.00 1015.20 1015.48 1015.64 1015.68 1015.56 1015.40 1015.28 1015.36 1015.32 1015.32 1015.72 1016.36 1016.60 1016.72 1016.80 1017.12 1017.20 1016.96 1016.60 1016.36 1016.32 1016.04 1015.76 1016.12 1016.36 1016.56 1016.76 1017.04 1017.28 1017.40 1017.60 1017.84 1018.04 1018.12 1018.20 1018.16 1018.12 1018.24 1018.16 1018.32 1018.72 1019.00 1019.20 1019.36 1019.52 1019.52 1019.56 1019.72 1019.88 1019.96 1020.00 1020.24 1020.24 1020.16 1020.08 1020.00 1019.72
1015.20 1014.72 1014.32 1014.48 1014.68 1014.96 1015.40 1015.68 1015.88 1015.92 1015.92 1015.72 1015.64 1015.56 1015.60 1015.76 1016.28 1016.64 1016.80 1016.92 1017.24 1017.48 1017.36 1017.08 1016.92 1016.76 1016.48 1016.48 1016.68 1016.80 1016.88 1017.04 1017.24 1017.28 1017.48 1017.60 1017.80 1018.24 1018.56 1018.64 1018.60 1018.52 1018.44 1018.64 1018.72 1019.00 1019.36 1019.56 1019.64 1019.68 1019.72 1019.76 1019.84 1020.04 1020.12 1020.12 1020.08 1020.00 1020.16 1020.24 1020.32 1020.32 1020.20
1015.40 1015.24 1014.92 1014.84 1015.04 1015.28 1015.48 1016.08 1016.44 1016.52 1016.44 1016.36 1016.28 1016.08 1016.00 1015.96 1016.48 1016.84 1016.96 1017.28 1017.72 1017.56 1017.36 1017.28 1017.24 1017.20 1017.16 1017.04 1017.28 1017.28 1017.52 1017.48 1017.56 1017.64 1017.72 1017.96 1018.12 1018.44 1018.80 1019.04 1019.04 1018.64 1018.56 1018.96 1019.20 1019.52 1019.96 1020.16 1020.16 1020.08 1020.20 1020.24 1020.20 1020.08 1020.00 1019.96 1020.00 1020.08 1020.00 1020.24 1020.32 1020.36 1020.32
1015.04 1015.12 1015.00 1014.88 1015.04 1015.52 1015.76 1016.24 1016.60 1016.84 1016.76 1016.72 1016.76 1016.64 1016.52 1016.44 1016.76 1017.04 1017.24 1017.72 1017.72 1017.64 1017.60 1017.64 1017.64 1017.60 1017.72 1017.84 1018.00 1017.92 1018.04 1018.12 1018.12 1018.16 1018.24 1018.40 1018.52 1018.60 1018.80 1019.04 1018.88 1018.56 1018.76 1019.20 1019.64 1020.00 1020.32 1020.40 1020.28 1020.12 1020.08 1020.08 1020.04 1019.84 1019.80 1019.84 1019.72 1019.92 1020.04 1020.04 1020.20 1020.24 1020.24
1015.36 1015.44 1015.44 1015.48 1015.72 1015.88 1016.08 1016.44 1016.64 1016.68 1016.76 1016.92 1017.00 1016.96 1016.96 1016.88 1017.00 1017.20 1017.48 1017.64 1017.52 1017.68 1017.80 1017.88 1017.88 1017.96 1018.20 1018.36 1018.40 1018.48 1018.52 1018.52 1018.52 1018.44 1018.52 1018.64 1018.56 1018.76 1018.84 1018.96 1018.92 1019.00 1019.20 1019.48 1019.76 1019.92 1020.04 1020.04 1020.00 1020.20 1020.12 1019.76 1019.52 1019.40 1019.44 1019.40 1019.40 1019.28 1019.72 1019.92 1019.92 1019.96 1020.04
1015.64 1015.68 1015.68 1015.80 1016.08 1016.28 1016.44 1016.56 1016.64 1016.92 1017.12 1017.16 1017.16 1017.16 1017.20 1017.12 1017.12 1017.44 1017.64 1017.52 1017.64 1017.72 1017.92 1018.00 1018.20 1018.40 1018.60 1018.68 1018.72 1018.72 1018.72 1018.84 1018.80 1018.76 1018.80 1018.76 1018.72 1018.92 1019.08 1019.20 1019.32 1019.56 1019.72 1019.64 1019.60 1019.72 1019.84 1019.76 1019.80 1019.88 1019.96 1020.08 1019.88 1019.88 1019.80 1019.64 1019.52 1019.32 1019.24 1019.44 1019.44 1019.44 1019.64
1015.96 1015.88 1016.04 1016.32 1016.36 1016.32 1016.48 1016.60 1016.72 1016.92 1017.08 1017.32 1017.28 1017.24 1017.32 1017.36 1017.40 1017.56 1017.60 1017.72 1017.76 1017.92 1018.12 1018.32 1018.48 1018.68 1018.84 1019.04 1019.16 1019.24 1019.12 1019.04 1018.88 1018.88 1018.92 1019.00 1019.04 1019.08 1019.20 1019.28 1019.24 1019.32 1019.40 1019.32 1019.36 1019.48 1019.60 1019.68 1019.88 1019.88 1019.92 1020.00 1019.96 1019.96 1019.88 1019.64 1019.48 1019.40 1019.56 1019.60 1019.60 1019.40 1019.32
1016.40 1016.44 1016.40 1016.36 1016.52 1016.56 1016.64 1016.84 1017.08 1017.28 1017.32 1017.48 1017.52 1017.52 1017.56 1017.56 1017.52 1017.44 1017.40 1017.56 1017.76 1017.96 1018.12 1018.24 1018.32 1018.52 1018.76 1018.96 1019.08 1019.12 1019.12 1019.20 1019.24 1019.16 1019.20 1019.24 1019.20 1019.24 1019.28 1019.32 1019.40 1019.68 1019.92 1020.00 1019.88 1019.76 1019.88 1019.92 1020.16 1020.28 1020.20 1020.08 1020.04 1020.04 1019.92 1019.84 1019.64 1019.96 1020.44 1020.36 1020.28 1020.08 1019.76
1016.68 1016.68 1016.68 1016.76 1016.88 1016.88 1017.00 1017.04 1017.16 1017.24 1017.40 1017.72 1017.80 1017.88 1017.84 1017.80 1017.80 1017.80 1017.88 1017.96 1018.04 1018.16 1018.32 1018.48 1018.48 1018.48 1018.56 1018.76 1018.92 1019.16 1019.16 1019.20 1019.32 1019.44 1019.60 1019.76 1019.88 1020.16 1020.32 1020.28 1020.00 1020.12 1020.36 1020.56 1020.60 1020.72 1020.40 1020.16 1020.16 1020.12 1020.00 1020.00 1020.36 1020.52 1020.48 1020.28 1020.24 1020.88 1021.68 1021.52 1021.60 1021.32 1020.80
1016.92 1016.96 1017.04 1016.96 1017.00 1017.16 1017.32 1017.44 1017.52 1017.72 1017.92 1018.08 1018.08 1018.12 1018.16 1018.12 1017.96 1017.84 1017.80 1017.92 1018.12 1018.24 1018.48 1018.52 1018.56 1018.64 1018.72 1018.76 1018.92 1019.12 1019.32 1019.44 1019.56 1019.64 1019.60 1019.76 1020.12 1020.48 1020.84 1021.36 1021.48 1021.12 1020.64 1020.76 1021.40 1021.52 1021.48 1021.20 1020.72 1020.80 1020.52 1020.20 1020.36 1020.60 1020.64 1020.64 1020.96 1021.60 1021.60 1021.52 1021.48 1021.48 1021.52
1017.36 1017.32 1017.36 1017.28 1017.48 1017.68 1017.84 1017.92 1017.92 1018.00 1018.16 1018.28 1018.32 1018.36 1018.40 1018.44 1018.44 1018.44 1018.32 1018.28 1018.28 1018.36 1018.52 1018.52 1018.68 1018.80 1019.00 1019.24 1019.40 1019.56 1019.60 1019.76 1019.92 1020.04 1020.04 1019.96 1020.00 1020.12 1020.56 1020.92 1021.32 1021.68 1021.76 1021.56 1021.68 1021.68 1021.64 1021.60 1021.56 1021.44 1021.32 1021.00 1020.56 1020.72 1021.08 1021.20 1021.44 1021.52 1021.56 1021.48 1021.36 1021.28 1021.12
1017.44 1017.60 1017.60 1017.60 1017.84 1018.04 1018.16 1018.32 1018.36 1018.36 1018.48 1018.44 1018.52 1018.68 1018.68 1018.76 1018.76 1018.76 1018.64 1018.64 1018.64 1018.60 1018.64 1018.64 1018.72 1018.92 1018.96 1019.12 1019.36 1019.52 1019.48 1019.64 1019.88 1019.96 1020.12 1020.20 1020.20 1020.16 1020.16 1020.36 1020.92 1021.52 1022.04 1022.32 1022.12 1022.04 1022.04 1021.92 1021.80 1021.76 1021.60 1021.48 1021.40 1020.96 1020.80 1021.28 1021.52 1021.60 1021.44 1021.40 1021.28 1021.08 1020.96
Wind_Speed
19 17 17 15 15 15 14 14 14 14 13 13 13 13 12 11 11 11 11 12 12 12 13 12 12 11 11 10 10 9 9 8 7 7 6 6 5 4 5 4 4 3 4 3 3 3 2 2 2 3 3 2 3 2 2 2 3 3 3 2 2 2 3
17 17 17 16 15 15 15 15 14 13 13 13 13 14 12 13 12 12 11 12 13 13 12 12 12 11 10 10 9 10 10 9 8 7 6 6 5 5 5 5 4 4 4 3 2 2 3 4 4 4 4 4 4 3 3 4 3 4 3 2 3 2 3
17 17 16 15 15 14 15 15 15 14 14 13 13 13 13 13 12 13 12 12 13 13 12 13 12 12 10 10 10 10 10 10 9 9 9 8 8 8 7 5 5 5 5 4 4 4 4 5 4 4 4 4 4 3 3 4 4 4 3 3 4 4 3
14 17 16 16 15 14 15 14 15 14 14 14 14 14 14 14 13 13 12 13 14 14 14 13 13 13 12 11 11 10 11 11 10 10 10 9 8 7 6 6 6 5 5 5 5 5 3 3 4 4 4 4 4 4 4 3 3 3 4 3 4 4 4
16 17 17 15 14 12 13 13 14 14 14 14 13 14 14 14 14 13 13 13 13 14 15 14 12 12 11 12 10 9 11 12 11 10 9 8 7 6 6 7 7 7 5 5 5 4 4 4 5 5 5 5 5 5 5 5 5 4 4 4 4 4 5
15 17 15 13 13 13 13 14 15 15 15 14 14 14 13 14 14 15 14 14 13 13 13 14 14 12 13 12 11 10 10 10 10 10 9 8 7 7 7 7 7 7 7 7 5 6 6 6 6 5 5 6 6 5 5 5 5 5 4 4 4 4 5
13 14 13 11 11 10 12 13 15 15 14 13 13 13 13 13 14 13 13 13 14 14 15 15 14 13 12 11 11 11 11 11 11 12 10 10 9 9 8 7 7 7 6 6 6 5 6 6 6 5 5 5 4 5 3 3 4 3 4 4 4 5 5
12 11 11 12 11 12 13 14 15 14 13 13 13 12 13 13 12 13 13 13 14 14 14 14 13 12 11 11 11 12 12 11 11 11 11 11 10 10 9 8 7 7 6 7 7 6 7 6 6 7 6 6 5 5 5 4 5 6 5 5 5 6 6
10 11 13 13 12 13 13 14 13 13 14 14 14 13 14 13 12 12 13 12 12 12 13 13 12 11 11 11 10 12 11 11 11 11 12 12 11 11 11 10 9 8 8 8 7 8 7 7 7 5 5 5 4 4 5 5 6 6 6 5 5 6 6
9 10 11 11 10 12 12 12 12 12 13 13 13 13 13 12 12 12 12 12 11 13 13 12 11 11 11 11 12 12 11 11 10 11 12 12 10 11 10 9 9 9 8 7 7 7 7 6 6 6 5 5 5 5 5 5 6 6 6 6 6 6 6
8 8 9 11 12 12 12 12 12 12 12 12 13 12 12 13 12 12 12 12 12 11 12 11 11 11 12 12 12 12 11 11 11 11 11 10 9 10 10 9 8 8 8 8 7 7 6 7 6 6 6 6 7 6 6 6 6 6 6 6 6 6 6
8 9 10 11 11 11 11 11 11 11 12 11 12 12 12 12 12 12 12 13 13 12 11 12 11 11 11 11 12 11 12 12 12 12 11 10 9 9 8 8 8 8 7 8 7 6 6 6 7 7 7 6 6 6 6 5 5 5 5 6 6 7 7
4 6 9 10 10 9 9 10 11 11 11 10 11 11 11 12 12 12 12 13 13 12 12 12 12 12 11 11 12 11 12 12 12 11 11 10 9 8 8 8 8 8 7 7 7 7 7 7 7 6 6 6 7 7 7 6 6 5 5 6 6 7 7
2 4 5 7 9 10 10 11 10 10 10 10 10 10 10 10 11 11 11 12 12 11 11 11 12 12 11 11 11 11 12 12 11 10 9 8 9 9 9 9 8 7 7 6 7 8 8 8 7 7 7 7 7 7 6 7 6 6 6 5 7 6 8
5 6 6 8 9 9 11 11 10 11 10 9 9 10 10 9 9 9 9 9 10 10 11 11 11 11 11 10 10 10 10 9 9 7 8 8 8 9 9 8 8 7 6 6 6 7 7 8 7 7 7 6 6 6 7 7 8 3 5 6 5 6 6
4 4 4 5 6 8 8 8 9 9 10 10 10 9 9 9 9 9 9 9 9 10 10 10 10 10 10 10 9 8 8 7 7 7 7 8 8 8 8 8 8 8 7 6 7 6 5 5 6 7 7 7 7 8 6 8 4 2 7 7 3 6 4
4 4 3 2 3 3 4 5 6 6 7 8 8 9 8 8 7 7 8 8 9 9 9 9 10 10 9 9 9 8 7 6 6 5 5 1 4 6 6 7 6 6 6 6 6 6 6 6 7 7 7 7 7 6 8 2 6 10 9 7 6 5 5
4 3 0 1 1 2 3 4 5 5 5 5 5 5 6 6 6 7 8 8 9 9 9 10 10 10 9 9 9 9 9 8 7 5 5 4 5 6 2 4 5 4 5 6 7 6 6 7 6 5 5 5 6 7 2 8 8 10 8 7 6 7 6
3 2 2 1 2 3 3 3 3 3 4 5 6 6 6 6 7 8 8 8 8 7 9 10 10 9 10 10 9 9 8 9 8 8 6 4 3 4 6 6 4 5 5 6 5 3 3 3 4 6 6 5 4 5 5 7 11 9 8 6 5 5 7
9 9 7 4 3 4 4 4 4 3 2 2 2 4 4 6 7 6 6 7 7 8 8 9 9 9 10 9 9 8 8 8 9 9 8 8 7 5 6 5 5 4 6 5 4 4 4 5 5 4 2 2 0 2 7 8 9 8 9 8 8 7 8
5 11 9 9 9 7 6 6 6 6 5 4 3 2 2 4 4 4 5 5 6 7 7 8 8 9 8 8 8 8 7 7 7 8 9 8 8 8 6 4 4 4 3 3 4 3 2 6 4 3 3 2 2 2 6 7 7 7 7 8 8 9 9
5 11 12 8 8 8 8 7 7 8 7 8 6 4 3 3 3 1 2 3 4 5 5 5 6 7 7 7 7 7 8 7 6 6 7 8 7 7 7 7 6 5 6 4 3 3 4 3 5 3 3 3 2 2 6 7 9 7 6 7 9 10 6
9 12 13 11 9 8 9 9 9 8 7 7 6 6 6 3 3 3 3 3 2 1 2 5 7 7 7 8 8 7 7 7 8 5 6 6 6 7 6 3 5 5 4 4 4 3 3 5 4 2 1 1 0 1 7 7 9 9 9 9 11 8 5
8 14 15 12 10 9 9 9 10 10 9 9 9 7 4 5 8 8 8 8 8 8 8 8 6 3 6 8 9 11 9 9 7 8 7 8 6 5 6 5 2 3 3 3 4 3 2 1 3 5 6 6 6 5 5 8 8 8 9 10 11 9 5
10 14 15 13 11 10 9 10 11 11 10 10 12 9 9 10 11 11 10 10 9 10 9 9 8 8 6 4 7 8 7 8 9 7 7 7 6 6 5 4 3 3 4 5 6 7 4 4 5 5 6 6 7 8 7 6 6 8 9 10 12 9 5
9 16 16 14 12 12 11 10 10 11 12 13 11 10 11 12 12 13 12 11 11 12 11 9 8 8 8 3 7 5 7 5 7 8 6 5 5 5 4 4 4 5 6 6 5 6 6 4 5 6 6 6 5 6 6 6 6 7 9 10 12 12 6
8 12 14 14 14 12 12 12 11 11 11 12 11 10 11 13 14 14 13 13 14 13 10 8 8 10 10 7 9 8 8 8 8 8 6 6 6 6 6 4 5 5 6 7 6 7 6 6 6 6 6 6 5 6 6 4 4 6 8 9 10 11 9
11 13 15 16 18 15 14 13 14 13 13 13 11 10 11 15 16 14 14 15 15 13 9 10 10 8 8 12 11 11 11 10 9 8 8 8 8 8 6 5 5 7 8 6 7 8 8 6 6 6 6 5 5 4 4 5 6 3 7 7 6 7 8
11 13 15 17 18 17 16 15 14 13 12 10 9 9 11 15 16 15 14 17 12 8 9 10 10 10 10 12 12 12 11 10 12 10 8 9 9 9 8 6 5 8 9 8 7 7 7 5 4 5 5 4 3 3 3 3 3 4 3 6 4 3 3
12 13 14 15 16 16 16 15 14 13 13 12 10 9 10 13 15 14 15 15 10 11 10 10 10 12 12 11 9 10 8 10 11 10 8 7 7 7 7 6 6 7 7 7 6 5 5 3 3 2 4 4 4 3 2 1 1 4 3 2 3 1 1
12 13 13 15 15 14 15 15 16 15 15 12 12 11 11 11 14 16 16 13 11 11 11 10 10 11 12 12 12 10 9 9 8 8 7 5 7 7 6 8 7 7 6 4 3 4 4 4 3 2 2 1 2 3 2 2 2 1 5 5 5 7 3
13 13 14 15 14 14 15 15 16 17 16 15 13 12 11 12 13 16 13 11 11 11 10 10 10 10 10 10 9 10 10 11 10 9 8 8 8 9 8 6 5 5 3 3 3 2 1 3 2 2 3 2 3 2 2 2 2 3 3 2 6 1 7
12 13 14 15 13 13 13 14 15 16 16 15 13 13 12 13 13 12 11 11 11 11 11 11 11 10 10 10 9 8 7 8 8 8 8 8 8 7 6 5 5 4 4 3 3 3 3 3 2 2 2 3 2 2 2 2 2 3 4 6 5 6 6
12 12 12 12 13 13 14 14 15 15 15 14 12 11 11 10 11 11 12 12 12 11 10 10 10 11 11 11 9 8 8 9 11 9 8 7 7 6 7 6 5 5 5 5 5 3 3 3 3 3 3 2 2 2 3 3 3 5 6 6 7 7 7
12 12 12 13 13 13 13 14 15 15 15 13 11 11 11 11 11 11 11 11 10 10 10 10 11 11 11 10 9 9 8 8 8 8 8 8 8 8 7 6 5 6 6 6 5 5 4 3 3 2 2 3 3 3 3 3 4 5 4 4 5 5 6
11 13 13 13 12 14 14 14 15 15 14 12 10 10 11 10 10 10 10 10 9 9 9 10 10 10 9 9 9 9 8 8 7 6 6 7 7 7 6 7 7 7 4 5 5 6 6 5 4 4 4 2 3 3 4 4 4 4 5 6 5 5 6
12 12 13 13 14 13 13 13 14 15 15 13 11 12 12 11 11 10 9 8 8 8 8 8 8 9 9 9 8 8 7 7 7 6 6 5 5 5 6 6 5 9 11 9 5 5 6 6 5 6 6 5 2 4 4 6 6 6 5 5 5 6 6
13 12 12 12 12 13 13 12 12 13 13 11 11 11 11 11 11 10 10 9 9 8 8 8 8 8 8 8 7 6 7 7 6 6 6 5 4 4 3 4 5 3 3 4 3 2 2 3 4 5 5 7 6 4 3 5 4 6 6 6 5 5 6
Wind_Direction
200 200 199 198 198 197 198 199 194 192 189 187 189 192 190 192 186 185 187 184 188 188 189 193 197 198 200 201 203 203 206 208 209 211 213 221 224 234 225 231 223 223 243 219 197 206 199 223 220 223 223 219 246 215 231 244 244 243 232 239 254 274 289
198 201 197 198 199 198 197 197 195 194 192 191 191 192 192 193 189 191 189 186 190 191 190 194 197 202 203 205 204 204 207 210 212 216 219 214 216 220 236 230 241 222 229 242 225 199 203 199 203 210 222 217 224 227 231 228 231 247 253 226 248 260 270
199 200 199 198 198 197 196 195 196 196 196 195 193 193 195 193 189 193 190 189 190 192 193 194 196 201 205 205 209 206 209 213 210 212 217 215 210 223 215 224 225 222 221 206 220 227 198 212 192 212 218 231 248 205 231 238 230 239 231 232 248 244 237
199 197 199 199 198 195 195 194 196 197 198 198 195 193 193 193 192 190 194 192 192 193 196 196 195 199 200 203 207 209 211 213 219 218 218 222 221 213 216 206 217 226 208 216 207 213 227 195 197 199 218 238 238 253 250 255 248 227 232 232 249 250 251
204 201 198 194 189 187 191 193 194 197 199 198 197 194 191 192 192 191 195 196 197 198 197 199 197 198 201 203 206 208 210 212 212 220 223 222 222 226 218 218 200 213 211 209 200 197 213 220 217 205 201 213 233 217 227 228 233 230 246 246 253 257 256
208 205 195 182 183 189 194 198 197 196 197 196 195 195 193 192 194 197 196 196 199 201 200 202 203 197 202 203 208 208 205 208 212 212 220 219 217 218 215 215 215 209 203 211 207 201 199 213 224 217 216 206 212 223 223 219 220 228 225 239 257 269 268
204 194 180 174 178 183 190 198 202 197 197 196 195 195 194 191 199 202 199 196 197 200 202 201 205 201 202 205 207 209 208 205 203 209 209 216 211 219 218 213 216 211 217 197 213 211 203 206 214 217 221 240 244 238 224 231 258 249 250 244 243 244 254
207 192 181 180 184 192 197 201 205 200 196 199 196 195 196 194 199 202 201 200 197 199 203 203 202 204 200 207 205 210 206 210 202 205 209 213 211 213 211 212 206 213 214 211 204 208 211 211 211 204 216 222 214 223 228 216 216 242 236 235 234 244 237
198 190 188 186 187 197 201 199 200 198 196 198 198 196 195 196 197 198 200 202 197 202 199 204 201 198 201 205 208 208 210 211 207 206 209 212 215 212 213 204 209 204 208 218 212 199 216 207 216 208 206 223 216 205 221 217 229 229 238 240 241 248 260
178 184 184 183 188 199 202 199 196 196 195 196 197 196 197 196 195 195 196 198 198 201 198 197 196 193 195 203 207 209 212 212 216 211 209 212 215 218 218 214 203 199 210 214 220 206 197 214 213 195 197 216 214 215 230 222 224 232 223 221 234 245 246
199 208 197 191 193 198 196 197 196 195 194 193 194 196 196 194 192 192 193 194 197 199 196 193 192 190 193 201 208 212 213 214 214 215 213 216 218 219 220 222 212 195 208 212 216 220 201 189 209 201 197 217 213 218 225 226 225 223 233 234 230 232 241
205 216 207 195 195 195 196 198 196 195 194 193 193 194 194 194 193 192 193 195 196 194 189 190 190 192 194 199 205 209 214 215 213 216 213 211 215 225 226 223 218 210 199 214 216 216 223 200 202 197 202 219 226 226 222 230 235 229 245 245 233 224 229
185 190 217 197 193 194 195 196 199 199 197 196 197 196 195 195 195 195 195 198 196 195 191 189 191 192 195 197 202 204 211 213 214 214 213 206 210 212 226 227 218 216 211 203 215 215 221 212 207 208 208 207 222 227 222 229 241 246 243 250 247 243 240
144 190 185 181 187 189 187 197 198 200 200 203 202 201 201 201 202 199 199 200 198 195 195 193 193 193 196 198 200 203 203 211 213 214 215 205 200 206 213 225 227 217 213 217 207 216 222 224 206 205 213 218 219 225 224 223 235 239 243 257 276 252 235
174 183 182 186 182 188 193 193 195 195 196 200 203 203 203 202 204 204 204 205 201 198 201 199 195 196 197 200 204 203 202 201 209 206 209 208 199 201 201 215 227 223 224 213 224 220 217 221 227 223 225 221 225 230 233 233 229 269 257 225 223 305 322
127 140 170 178 179 191 193 192 191 194 194 198 200 202 203 203 205 205 206 204 202 202 200 198 198 197 200 202 204 202 195 194 194 198 199 200 199 199 200 210 219 221 218 220 218 228 235 237 234 235 229 230 224 227 231 239 94 101 45 29 331 254 256
103 67 78 131 156 175 168 171 174 178 191 198 203 207 207 207 206 207 209 208 205 203 200 197 200 199 197 205 203 195 187 186 187 192 201 164 235 205 210 212 215 223 218 223 224 229 215 224 228 232 232 233 235 232 236 49 61 48 52 50 8 295 262
119 129 294 106 129 167 167 169 163 171 169 168 184 194 201 202 203 204 208 206 207 208 206 208 204 203 206 208 202 197 196 189 181 160 122 192 244 279 267 207 209 205 211 224 222 211 224 222 215 221 235 234 237 236 200 87 43 47 44 35 18 355 307
81 106 140 100 125 155 164 165 154 161 169 180 190 196 197 199 203 208 208 207 206 205 206 213 208 202 207 205 206 201 192 170 155 137 139 160 168 163 207 227 205 203 213 217 222 206 193 198 195 227 235 243 242 258 96 82 41 26 27 28 357 356 312
59 60 44 64 70 79 70 97 130 138 136 157 175 206 207 212 213 211 209 209 210 209 212 217 208 212 214 209 205 188 177 165 156 155 154 145 150 177 183 170 175 205 201 190 196 217 230 235 235 222 238 262 231 88 79 69 36 11 8 5 349 335 322
65 88 60 24 19 34 37 33 49 61 65 73 99 105 211 203 207 203 198 207 210 215 219 217 222 222 218 212 199 185 178 177 175 168 164 157 160 166 158 148 147 151 168 178 178 155 238 270 234 208 196 179 202 158 87 70 31 18 358 0 339 330 299
81 80 78 65 33 20 26 40 45 44 41 32 37 46 20 31 17 188 181 196 214 215 217 215 214 215 209 191 166 155 163 164 159 165 168 159 156 161 158 178 192 177 187 200 197 186 165 219 254 216 207 205 169 185 104 76 43 20 4 357 343 314 288
111 95 87 78 66 47 36 43 51 56 58 54 48 45 48 50 54 56 50 43 3 308 254 232 217 208 183 166 157 149 124 122 131 161 176 157 146 134 131 197 199 181 175 190 187 175 174 207 215 202 226 154 175 42 83 71 35 21 14 6 352 316 311
96 94 92 88 78 60 53 50 56 55 55 62 58 50 50 59 73 63 59 56 56 57 49 35 12 301 220 187 178 176 159 155 160 163 164 156 159 156 151 154 224 155 186 192 182 164 171 105 80 66 50 52 57 70 94 74 48 29 24 14 4 331 305
93 90 89 88 88 84 75 69 68 67 67 69 68 61 57 63 67 72 67 62 59 56 50 39 31 23 347 239 174 150 148 159 161 149 149 153 150 149 151 153 149 108 74 59 60 64 50 74 88 83 73 69 74 61 76 83 76 46 33 24 16 357 355
108 100 94 90 85 85 80 77 73 75 78 78 75 77 79 80 80 75 72 67 63 57 50 42 37 28 20 2 81 83 99 106 127 137 135 118 96 98 104 98 93 104 98 88 80 91 96 99 89 87 78 67 67 69 68 82 71 49 36 29 22 8 353
90 96 102 98 94 91 86 82 75 73 74 80 83 87 92 92 86 82 82 82 75 66 59 55 52 57 51 26 73 73 71 76 75 75 68 72 84 80 73 75 100 105 102 96 88 80 75 82 88 88 83 80 74 68 61 52 62 70 50 41 30 15 2
85 88 91 95 97 93 87 80 76 77 77 82 83 84 86 91 88 87 85 79 73 72 67 57 50 36 47 61 55 61 73 78 74 75 82 86 84 79 66 58 80 89 81 66 70 79 82 80 84 85 88 94 87 83 97 72 52 83 84 57 46 34 11
92 89 93 95 94 96 96 91 79 63 60 51 53 70 81 88 87 86 82 81 77 70 64 60 53 48 50 59 59 58 55 59 68 67 73 77 81 85 83 82 82 82 79 76 72 79 87 93 105 107 106 108 119 127 106 99 94 50 73 92 57 52 44
98 97 93 89 93 95 95 94 90 83 75 69 57 53 71 82 87 86 84 84 86 86 81 75 69 69 65 60 54 57 45 56 65 67 63 67 70 75 80 70 64 70 74 86 87 88 93 93 88 115 124 126 137 132 110 105 45 131 98 96 144 166 325
102 100 96 95 94 95 95 96 96 92 87 82 77 72 75 82 92 93 92 97 98 93 92 91 91 89 86 83 81 78 71 64 60 55 59 61 82 78 73 74 61 66 69 83 108 136 144 152 165 117 85 111 97 75 72 70 8 19 153 186 211 193 209
104 102 103 101 99 98 99 100 100 100 99 93 87 82 77 80 85 88 93 98 98 95 91 88 86 85 85 83 79 84 90 92 91 80 69 66 69 68 59 61 76 94 106 98 85 85 99 112 117 127 127 102 54 39 3 344 334 329 15 22 348 215 178
105 102 102 102 106 108 104 100 96 94 93 90 88 92 95 93 90 93 100 99 99 100 100 97 94 91 89 88 86 82 82 88 93 94 88 86 84 84 87 78 75 70 78 102 123 110 97 100 77 63 62 32 19 8 328 319 333 354 14 358 348 344 339
109 106 103 103 103 102 101 99 96 93 89 88 87 90 95 93 91 93 93 96 99 104 106 103 101 101 101 101 100 95 91 87 83 83 80 69 72 83 88 86 78 66 51 34 17 38 87 62 49 27 13 13 15 343 336 350 359 33 9 352 344 335 332
107 107 109 107 105 104 101 100 96 93 91 90 90 89 89 95 98 100 100 102 104 104 101 100 99 98 98 97 95 94 91 89 89 87 84 79 73 57 34 27 46 71 72 40 20 6 11 33 87 58 34 31 18 355 346 351 17 32 15 336 330 314 318
107 105 103 103 103 101 98 96 97 97 96 94 92 88 86 85 87 93 100 105 106 103 99 98 94 90 86 87 89 87 84 81 80 80 93 102 101 93 77 47 44 11 31 87 54 39 15 5 40 7 347 11 72 23 359 7 23 29 7 343 322 309 284
107 106 105 106 104 102 99 99 99 100 98 98 97 93 90 87 84 82 80 83 90 93 94 98 100 97 92 85 81 83 88 90 88 85 76 73 84 107 118 117 79 44 33 36 48 24 20 37 38 23 10 357 41 102 127 72 62 11 340 320 313 300 296
106 103 106 107 107 107 104 100 96 95 96 97 96 94 91 87 84 83 84 80 81 82 85 87 88 84 84 88 91 93 90 89 90 93 91 87 83 80 104 128 134 114 53 45 35 51 34 22 21 19 35 29 22 357 126 130 99 4 330 313 311 308 311